Location: Anuling
(14.1239°N, 120.8922°E)
Time: 01:01:03
(UTC+00:00)

GPS 2-17 Rocket1 - Pass Details

Date: 16 April 2026
Orbit: 544 x 613 km, 20.3° (Epoch: 19 May)

Event Time Altitude Azimuth Distance (km) Brightness Sun altitude
Rises 12:35:11 0° 281° (WNW) 2,858 7.5 -34.5°
Reaches altitude 10° 12:37:33 10° 278° (W) 1,953 6.3 -35.0°
Enters shadow 12:38:46 18° 274° (W) 1,507 5.6 -35.3°
